WetterOnline ( https://www.wetteronline.de )

Wetter aktuell Bassano del Grappa

Aktuelles Wetter: Istrana (46m)

6-stündlich | Neueste Meldungen
Ortszeit Temperatur Wetter
Mo, 04.03. 19:00 11.0° C leicht bewölkt
Mo, 04.03. 13:00 13.0° C bedeckt
Mo, 04.03. 7:00 9.8° C leichter Regen
Mo, 04.03. 1:00 10.4° C leichter Regen
So, 03.03. 19:00 12.0° C wolkig
So, 03.03. 13:00 13.6° C leicht bewölkt
So, 03.03. 7:00 8.8° C Nebel (zunehmend)
So, 03.03. 1:00 9.4° C bewölkt
Ortszeit Temperatur Wetter
Mo, 04.03. 23:00 9.8° C leicht bewölkt
Mo, 04.03. 22:00 10.2° C leicht bewölkt
Mo, 04.03. 21:00 11.0° C leicht bewölkt
Mo, 04.03. 20:00 10.6° C leicht bewölkt
Mo, 04.03. 19:00 11.0° C leicht bewölkt
Mo, 04.03. 18:00 13.0° C leicht bewölkt
Mo, 04.03. 17:00 14.6° C leicht bewölkt
Ortszeit Relative Feuchte Sichtweite
Mo, 04.03. 19:00 85% 10 km
Mo, 04.03. 13:00 86% 7 km
Mo, 04.03. 7:00 95% 6 km
Mo, 04.03. 1:00 92% 10 km
So, 03.03. 19:00 81% 15 km
So, 03.03. 13:00 87% 15 km
So, 03.03. 7:00 100% 100 m
So, 03.03. 1:00 98% 10 km
Ortszeit Relative Feuchte Sichtweite
Mo, 04.03. 23:00 93% 15 km
Mo, 04.03. 22:00 92% 15 km
Mo, 04.03. 21:00 92% 15 km
Mo, 04.03. 20:00 87% 10 km
Mo, 04.03. 19:00 85% 10 km
Mo, 04.03. 18:00 81% 10 km
Mo, 04.03. 17:00 77% 15 km
Ortszeit Niederschlagsmenge Niederschlagsart
Mo, 04.03. 19:00 0.0 l/m2 in 12 Std. -
Mo, 04.03. 13:00 0.0 l/m2 in 6 Std. Regen
Mo, 04.03. 7:00 0.0 l/m2 in 12 Std. Regen
Mo, 04.03. 1:00 0.0 l/m2 in 6 Std. Regen
So, 03.03. 19:00 0.0 l/m2 in 12 Std. -
So, 03.03. 13:00 0.0 l/m2 in 6 Std. Nebel
So, 03.03. 7:00 0.0 l/m2 in 12 Std. Nebel
So, 03.03. 1:00 0.0 l/m2 in 6 Std. -
Ortszeit Niederschlagsmenge Niederschlagsart
Mo, 04.03. 23:00 keine Meldung -
Mo, 04.03. 22:00 keine Meldung -
Mo, 04.03. 21:00 keine Meldung -
Mo, 04.03. 20:00 keine Meldung -
Mo, 04.03. 19:00 keine Meldung -
Mo, 04.03. 18:00 keine Meldung -
Mo, 04.03. 17:00 keine Meldung -
Ortszeit Stärke Spitze Richtung
km/h Bft. km/h Grad Sektor
Mo, 04.03. 19:00 9 2 - 280° W
Mo, 04.03. 13:00 9 2 - 10° N
Mo, 04.03. 7:00 17 3 - 10° N
Mo, 04.03. 1:00 20 4 - 50° NO
So, 03.03. 19:00 13 3 - 90° O
So, 03.03. 13:00 17 3 - 70° O
So, 03.03. 7:00 11 2 - 60° NO
So, 03.03. 1:00 6 1 - 50° NO
Ortszeit Stärke Spitze Richtung
km/h Bft. km/h Grad Sektor
Mo, 04.03. 23:00 7 2 - 270° W
Mo, 04.03. 22:00 11 2 - 280° W
Mo, 04.03. 21:00 9 2 - 290° W
Mo, 04.03. 20:00 11 2 - 260° W
Mo, 04.03. 19:00 9 2 - 280° W
Mo, 04.03. 18:00 7 2 - 240° SW
Mo, 04.03. 17:00 6 1 - 200° S
Ortszeit Untergrenze Bedeckung Gattung
total tief tief mittel hoch
Mo, 04.03. 19:00 3000 m 3/8 3/8 - Ac -
Mo, 04.03. 13:00 300 m 8/8 8/8 St - -
Mo, 04.03. 7:00 600 m 8/8 8/8 Sc - -
Mo, 04.03. 1:00 750 m 7/8 7/8 Sc - -
So, 03.03. 19:00 900 m 6/8 6/8 Sc - -
So, 03.03. 13:00 1800 m 5/8 2/8 - Ac Ci
So, 03.03. 7:00 - 8/8 - - - -
So, 03.03. 1:00 210 m 8/8 3/8 St Ns -
Ortszeit Bedeckungsgrad in Achtel und Wolkenuntergrenze
Mo, 04.03. 23:00 2(3000m)
Mo, 04.03. 22:00 5(2700m)
Mo, 04.03. 21:00 6(2100m)
Mo, 04.03. 20:00 5(3300m)
Mo, 04.03. 19:00 3(3000m)
Mo, 04.03. 18:00 4(2700m)
Mo, 04.03. 17:00 1(1800m) 3(3000m)
Ortszeit Luftdruck NN (hPa) Tendenz (hPa in 3 Std.)
Mo, 04.03. 19:00 1008 + 0,9
Mo, 04.03. 13:00 1008 + 1,2
Mo, 04.03. 7:00 1006 + 0,2
Mo, 04.03. 1:00 1007 - 0,7
So, 03.03. 19:00 1007 - 0,8
So, 03.03. 13:00 1009 - 1,1
So, 03.03. 7:00 1010 + 0,2
So, 03.03. 1:00 1011 - 0,2
Ortszeit Luftdruck NN (hPa) Tendenz (hPa in 3 Std.)
Mo, 04.03. 23:00 1009 + 0,6
Mo, 04.03. 22:00 1009 + 0,8
Mo, 04.03. 21:00 1009 + 1,2
Mo, 04.03. 20:00 1009 + 1,5
Mo, 04.03. 19:00 1008 + 0,9
Mo, 04.03. 18:00 1008 + 0,3
Mo, 04.03. 17:00 1007 - 0,9
Ortszeit Schneehöhe (cm)
Mo, 04.03. 19:00 -
Mo, 04.03. 13:00 -
Mo, 04.03. 7:00 0
Mo, 04.03. 1:00 -
So, 03.03. 19:00 -
So, 03.03. 13:00 -
So, 03.03. 7:00 0
So, 03.03. 1:00 -
Ortszeit Schneehöhe (cm)
Mo, 04.03. 23:00 -
Mo, 04.03. 22:00 -
Mo, 04.03. 21:00 -
Mo, 04.03. 20:00 -
Mo, 04.03. 19:00 -
Mo, 04.03. 18:00 -
Mo, 04.03. 17:00 -
Link zu dieser Seite / Seite empfehlen

Das Wetter in ...